Powrót do katalogu

COSMOS 2251 DEB

AktywnyLEO
NORAD 35434·DEBRIS·🇷🇺 Russia

Wystrzelony Jun 16, 1993 z Plesetsk Cosmodrome

Loading…

Następne Przeloty (najbliższe 24 godziny)

TLE

Starzejące sięSource: Space-Track

Epoka: Sep 12, 2026, 05:04 UTC

1 35434U 93036AKC 26255.21140002  .00000826  00000-0  34032-3 0  9991
2 35434  74.0383  79.6777 0086178  84.9987 276.0991 14.26407322900165

Śledź COSMOS 2251 DEB w czasie rzeczywistym z AllMySat

Download on the App Store